Seven Seas Mariner — C6VV8 — position and weather

sailwx.info

Track history (hours):
 
Tides and Currents Weather Stations Pressure Air Temp Water Temp Dewpoint Dewpoint Depression Visibility Wind Speed Wind Dir Waves Ship Positions

Seven Seas Mariner

Last reported at 2017-Apr-25 23:30 UTC. Time now 2017-Apr-27 18:51 UTC.
Position N 25°27' W 079°54'.

Length 216 m; draft 7.2 m.

Type: Ship. MMSI: 311622000.

Date/timePositionNaut miles runAvg speedWind from/ knotsBaromVisibWave heightAir tempDewpointWater temp
2017-Apr-25 23:30N 25°27' W 079°54'816.1
2017-Apr-25 23:00N 25°34' W 079°57'816.1
2017-Apr-25 22:30N 25°42' W 079°59'612.7
2017-Apr-25 22:00N 25°46' W 080°05'5 9.6
2017-Apr-25 21:30N 25°46' W 080°10'1 1.6
2017-Apr-25 20:59N 25°46' W 080°11'0 0.0
2017-Apr-25 20:26N 25°46' W 080°11'0 0.0
2017-Apr-25 19:59N 25°46' W 080°11'0 0.0
2017-Apr-25 19:29N 25°46' W 080°11'0 0.0
2017-Apr-25 18:56N 25°46' W 080°11'0 0.0
2017-Apr-25 18:28N 25°46' W 080°11'0 0.0
2017-Apr-25 17:58N 25°46' W 080°11'0 0.0
2017-Apr-25 17:28N 25°46' W 080°11'0 0.0
2017-Apr-25 16:55N 25°46' W 080°11'0 0.0
2017-Apr-25 16:24N 25°46' W 080°11'0 0.0
2017-Apr-25 15:57N 25°46' W 080°11'0 0.0
2017-Apr-25 15:30N 25°46' W 080°11'0 0.0
2017-Apr-25 15:00N 25°46' W 080°11'0 0.0
2017-Apr-25 13:59N 25°46' W 080°11'0 0.0
2017-Apr-25 13:29N 25°46' W 080°11'0 0.0
2017-Apr-25 12:59N 25°46' W 080°11'0 0.0
2017-Apr-25 12:29N 25°46' W 080°11'0 0.0
2017-Apr-25 11:56N 25°46' W 080°11'0 0.0
2017-Apr-25 11:28N 25°46' W 080°11'0 0.0
2017-Apr-25 11:00N 25°46' W 080°11'0 0.1
2017-Apr-25 10:30N 25°46' W 080°11'2 4.0
2017-Apr-25 10:00N 25°46' W 080°09'5 9.3
2017-Apr-25 09:30N 25°46' W 080°03'4 8.9
2017-Apr-25 09:00N 25°43' W 080°01'5 9.6
2017-Apr-25 08:30N 25°38' W 079°59'612.2
2017-Apr-25 08:00N 25°32' W 079°57'611.6
2017-Apr-25 07:30N 25°27' W 079°55'612.2
2017-Apr-25 07:00N 25°21' W 079°57'36317.3
2017-Apr-24 10:00N 21°48' W 085°18'   350 / 151010.4 5.4 25.023.625.0
2017-Apr-21 17:40N 20°19' W 087°05'317.2
2017-Apr-21 17:31N 20°22' W 087°05'815.5
2017-Apr-21 17:00N 20°29' W 087°01'611.3
2017-Apr-21 16:31N 20°32' W 086°57'1 2.0
2017-Apr-21 16:01N 20°33' W 086°58'712.9
2017-Apr-21 15:30N 20°39' W 086°55'28217.1
2017-Apr-20 23:00N 23°06' W 082°36'186 4.0 090 / 261015.1 2.2 25.020.725.0
2017-Apr-19 00:24N 25°12' W 080°06'615.7
2017-Apr-19 00:00N 25°18' W 080°03'1015.2
2017-Apr-18 23:19N 25°28' W 080°01'515.7
2017-Apr-18 23:00N 25°33' W 080°01'3206.3
2017-Apr-18 23:00N 25°36' W 080°00'510.4 080 / 281018.9 5.4 25.023.624.0
2017-Apr-18 22:30N 25°41' W 080°02'612.6
2017-Apr-18 22:00N 25°46' W 080°06'4 7.1
2017-Apr-18 21:31N 25°46' W 080°10'1 1.1
2017-Apr-18 20:51N 25°46' W 080°11'0 0.0
2017-Apr-18 20:30N 25°46' W 080°11'0 0.0
2017-Apr-18 19:59N 25°46' W 080°11'0 0.0
2017-Apr-18 19:29N 25°46' W 080°11'0 0.0
2017-Apr-18 18:59N 25°46' W 080°11'0 0.0
2017-Apr-18 18:29N 25°46' W 080°11'0 0.0
2017-Apr-18 17:59N 25°46' W 080°11'0 0.0
2017-Apr-18 17:28N 25°46' W 080°11'0 0.0
2017-Apr-18 16:58N 25°46' W 080°11'0 0.0
2017-Apr-18 16:28N 25°46' W 080°11'0 0.0
2017-Apr-18 15:58N 25°46' W 080°11'0 0.0
2017-Apr-18 15:28N 25°46' W 080°11'0 0.0
2017-Apr-18 14:57N 25°46' W 080°11'0 0.0
2017-Apr-18 14:27N 25°46' W 080°11'0 0.0
2017-Apr-18 13:30N 25°46' W 080°11'0 0.0
2017-Apr-18 12:59N 25°46' W 080°11'0 0.0
2017-Apr-18 12:26N 25°46' W 080°11'0 0.0
2017-Apr-18 11:59N 25°46' W 080°11'0 0.0
2017-Apr-18 11:29N 25°46' W 080°11'0 0.0
2017-Apr-18 10:59N 25°46' W 080°11'0 0.0
2017-Apr-18 10:31N 25°46' W 080°11'2 4.3
2017-Apr-18 10:00N 25°46' W 080°08'5 9.2
2017-Apr-18 09:31N 25°46' W 080°03'4 9.0
2017-Apr-18 09:01N 25°43' W 080°00'612.8
2017-Apr-18 08:31N 25°37' W 079°58'612.8
2017-Apr-18 08:00N 25°31' W 079°56'612.1
2017-Apr-18 07:31N 25°25' W 079°56'712.8
2017-Apr-18 06:59N 25°18' W 079°57'17616.0
2017-Apr-17 20:00N 23°30' W 082°30'40615.0 050 / 191015.3 5.4 25.020.725.0
2017-Apr-16 17:00N 18°42' W 087°36'   090 / 201016.8 5.4 25.020.725.0
Track history (hours):
 
Tides and Currents Weather Stations Pressure Air Temp Water Temp Dewpoint Dewpoint Depression Visibility Wind Speed Wind Dir Waves Ship Positions

Seven Seas Mariner

Last reported at 2017-Apr-25 23:30 UTC. Time now 2017-Apr-27 18:51 UTC.
Position N 25°27' W 079°54'.

Length 216 m; draft 7.2 m.

Type: Ship. MMSI: 311622000.

Date/timePositionNaut miles runAvg speedWind from/ knotsBaromVisibWave heightAir tempDewpointWater temp
2017-Apr-25 23:30N 25°27' W 079°54'816.1
2017-Apr-25 23:00N 25°34' W 079°57'816.1
2017-Apr-25 22:30N 25°42' W 079°59'612.7
2017-Apr-25 22:00N 25°46' W 080°05'5 9.6
2017-Apr-25 21:30N 25°46' W 080°10'1 1.6
2017-Apr-25 20:59N 25°46' W 080°11'0 0.0
2017-Apr-25 20:26N 25°46' W 080°11'0 0.0
2017-Apr-25 19:59N 25°46' W 080°11'0 0.0
2017-Apr-25 19:29N 25°46' W 080°11'0 0.0
2017-Apr-25 18:56N 25°46' W 080°11'0 0.0
2017-Apr-25 18:28N 25°46' W 080°11'0 0.0
2017-Apr-25 17:58N 25°46' W 080°11'0 0.0
2017-Apr-25 17:28N 25°46' W 080°11'0 0.0
2017-Apr-25 16:55N 25°46' W 080°11'0 0.0
2017-Apr-25 16:24N 25°46' W 080°11'0 0.0
2017-Apr-25 15:57N 25°46' W 080°11'0 0.0
2017-Apr-25 15:30N 25°46' W 080°11'0 0.0
2017-Apr-25 15:00N 25°46' W 080°11'0 0.0
2017-Apr-25 13:59N 25°46' W 080°11'0 0.0
2017-Apr-25 13:29N 25°46' W 080°11'0 0.0
2017-Apr-25 12:59N 25°46' W 080°11'0 0.0
2017-Apr-25 12:29N 25°46' W 080°11'0 0.0
2017-Apr-25 11:56N 25°46' W 080°11'0 0.0
2017-Apr-25 11:28N 25°46' W 080°11'0 0.0
2017-Apr-25 11:00N 25°46' W 080°11'0 0.1
2017-Apr-25 10:30N 25°46' W 080°11'2 4.0
2017-Apr-25 10:00N 25°46' W 080°09'5 9.3
2017-Apr-25 09:30N 25°46' W 080°03'4 8.9
2017-Apr-25 09:00N 25°43' W 080°01'5 9.6
2017-Apr-25 08:30N 25°38' W 079°59'612.2
2017-Apr-25 08:00N 25°32' W 079°57'611.6
2017-Apr-25 07:30N 25°27' W 079°55'612.2
2017-Apr-25 07:00N 25°21' W 079°57'36317.3
2017-Apr-24 10:00N 21°48' W 085°18'   350 / 151010.4 5.4 25.023.625.0
2017-Apr-21 17:40N 20°19' W 087°05'317.2
2017-Apr-21 17:31N 20°22' W 087°05'815.5
2017-Apr-21 17:00N 20°29' W 087°01'611.3
2017-Apr-21 16:31N 20°32' W 086°57'1 2.0
2017-Apr-21 16:01N 20°33' W 086°58'712.9
2017-Apr-21 15:30N 20°39' W 086°55'28217.1
2017-Apr-20 23:00N 23°06' W 082°36'186 4.0 090 / 261015.1 2.2 25.020.725.0
2017-Apr-19 00:24N 25°12' W 080°06'615.7
2017-Apr-19 00:00N 25°18' W 080°03'1015.2
2017-Apr-18 23:19N 25°28' W 080°01'515.7
2017-Apr-18 23:00N 25°33' W 080°01'3206.3
2017-Apr-18 23:00N 25°36' W 080°00'510.4 080 / 281018.9 5.4 25.023.624.0
2017-Apr-18 22:30N 25°41' W 080°02'612.6
2017-Apr-18 22:00N 25°46' W 080°06'4 7.1
2017-Apr-18 21:31N 25°46' W 080°10'1 1.1
2017-Apr-18 20:51N 25°46' W 080°11'0 0.0
2017-Apr-18 20:30N 25°46' W 080°11'0 0.0
2017-Apr-18 19:59N 25°46' W 080°11'0 0.0
2017-Apr-18 19:29N 25°46' W 080°11'0 0.0
2017-Apr-18 18:59N 25°46' W 080°11'0 0.0
2017-Apr-18 18:29N 25°46' W 080°11'0 0.0
2017-Apr-18 17:59N 25°46' W 080°11'0 0.0
2017-Apr-18 17:28N 25°46' W 080°11'0 0.0
2017-Apr-18 16:58N 25°46' W 080°11'0 0.0
2017-Apr-18 16:28N 25°46' W 080°11'0 0.0
2017-Apr-18 15:58N 25°46' W 080°11'0 0.0
2017-Apr-18 15:28N 25°46' W 080°11'0 0.0
2017-Apr-18 14:57N 25°46' W 080°11'0 0.0
2017-Apr-18 14:27N 25°46' W 080°11'0 0.0
2017-Apr-18 13:30N 25°46' W 080°11'0 0.0
2017-Apr-18 12:59N 25°46' W 080°11'0 0.0
2017-Apr-18 12:26N 25°46' W 080°11'0 0.0
2017-Apr-18 11:59N 25°46' W 080°11'0 0.0
2017-Apr-18 11:29N 25°46' W 080°11'0 0.0
2017-Apr-18 10:59N 25°46' W 080°11'0 0.0
2017-Apr-18 10:31N 25°46' W 080°11'2 4.3
2017-Apr-18 10:00N 25°46' W 080°08'5 9.2
2017-Apr-18 09:31N 25°46' W 080°03'4 9.0
2017-Apr-18 09:01N 25°43' W 080°00'612.8
2017-Apr-18 08:31N 25°37' W 079°58'612.8
2017-Apr-18 08:00N 25°31' W 079°56'612.1
2017-Apr-18 07:31N 25°25' W 079°56'712.8
2017-Apr-18 06:59N 25°18' W 079°57'17616.0
2017-Apr-17 20:00N 23°30' W 082°30'40615.0 050 / 191015.3 5.4 25.020.725.0
2017-Apr-16 17:00N 18°42' W 087°36'   090 / 201016.8 5.4 25.020.725.0

Dump ship's entire track history